| time (UTC) | temp C | wind direction | speed KPH | gust KPH | rain 1hr cm | rain 24hr cm | rain mn cm | humidity % | barometer mb |
| 20260505161600 | 21 | 167 | 4.8 | 9.7 | 0.00 | 0.00 | 0.00 | 52 | 1018.8 |
| 20260505161530 | 23 | 256 | 3.2 | 9.7 | 0.00 | 0.00 | 0.00 | 60 | 1009.5 |
| 20260505153058 | 23 | 153 | 8.0 | 17.7 | 0.00 | 0.00 | 0.00 | 49 | 1018.7 |
| 20260505153033 | 26 | 208 | 8.0 | 16.1 | 0.00 | 0.00 | 0.00 | 55 | 1009.3 |
| 20260505151558 | 23 | 174 | 6.4 | 22.5 | 0.00 | 0.00 | 0.00 | 47 | 1018.7 |
| 20260505151534 | 26 | 193 | 6.4 | 16.1 | 0.00 | 0.00 | 0.00 | 53 | 1009.3 |
| 20260505130112 | 26 | 86 | 12.9 | 27.4 | 0.00 | 0.00 | 0.00 | 43 | 1018.9 |
| 20260505124608 | 26 | 118 | 8.0 | 25.7 | 0.00 | 0.00 | 0.00 | 46 | 1019.1 |
| 20260505124539 | 28 | 201 | 12.9 | 27.4 | 0.00 | 0.00 | 0.00 | 46 | 1009.3 |
| 20260505123116 | 26 | 91 | 12.9 | 25.7 | 0.00 | 0.00 | 0.00 | 46 | 1019.1 |
| 20260505123042 | 28 | 232 | 14.5 | 29.0 | 0.00 | 0.00 | 0.00 | 45 | 1009.4 |
| 20260505121555 | 26 | 94 | 12.9 | 24.1 | 0.00 | 0.00 | 0.00 | 49 | 1019.3 |
| 20260505121535 | 28 | 253 | 14.5 | 27.4 | 0.00 | 0.00 | 0.00 | 47 | 1009.5 |
| 20260505120057 | 26 | 195 | 11.3 | 32.2 | 0.00 | 0.00 | 0.00 | 51 | 1019.5 |
| 20260505120033 | 28 | 98 | 8.0 | 27.4 | 0.00 | 0.00 | 0.00 | 48 | 1009.7 |
| 20260505114612 | 26 | 86 | 11.3 | 25.7 | 0.00 | 0.00 | 0.00 | 53 | 1019.7 |
| 20260505114535 | 28 | 226 | 9.7 | 27.4 | 0.00 | 0.00 | 0.00 | 48 | 1010.2 |
| 20260505113058 | 26 | 177 | 14.5 | 24.1 | 0.00 | 0.00 | 0.00 | 55 | 1020.1 |
| 20260505113034 | 28 | 209 | 12.9 | 20.9 | 0.00 | 0.00 | 0.00 | 48 | 1010.4 |
| 20260505111605 | 26 | 144 | 11.3 | 20.9 | 0.00 | 0.00 | 0.00 | 53 | 1020.2 |
| 20260505111537 | 28 | 201 | 12.9 | 29.0 | 0.00 | 0.00 | 0.00 | 48 | 1010.7 |
| 20260505101557 | 25 | 151 | 8.0 | 20.9 | 0.00 | 0.00 | 0.00 | 59 | 1021.3 |
| 20260505101535 | 27 | 153 | 8.0 | 24.1 | 0.00 | 0.00 | 0.00 | 53 | 1011.9 |
| 20260505100055 | 25 | 88 | 8.0 | 19.3 | 0.00 | 0.00 | 0.00 | 58 | 1021.7 |
| 20260505100033 | 26 | 234 | 9.7 | 25.7 | 0.00 | 0.00 | 0.00 | 55 | 1012.3 |
| 20260505094552 | 24 | 57 | 8.0 | 19.3 | 0.00 | 0.00 | 0.00 | 59 | 1021.9 |
| 20260505094535 | 26 | 246 | 9.7 | 24.1 | 0.00 | 0.00 | 0.00 | 55 | 1012.7 |
| 20260505093058 | 24 | 137 | 9.7 | 19.3 | 0.00 | 0.00 | 0.00 | 60 | 1022.1 |
| 20260505093031 | 26 | 227 | 8.0 | 24.1 | 0.00 | 0.00 | 0.00 | 55 | 1013.0 |
| 20260505091554 | 24 | 98 | 9.7 | 20.9 | 0.00 | 0.00 | 0.00 | 63 | 1022.4 |
| 20260505091532 | 26 | 212 | 12.9 | 25.7 | 0.00 | 0.00 | 0.00 | 56 | 1013.4 |
| 20260505090059 | 23 | 125 | 9.7 | 22.5 | 0.00 | 0.00 | 0.00 | 64 | 1022.7 |
| 20260505090038 | 26 | 227 | 12.9 | 24.1 | 0.00 | 0.00 | 0.00 | 58 | 1013.7 |
| 20260505084554 | 22 | 87 | 11.3 | 22.5 | 0.00 | 0.00 | 0.00 | 66 | 1022.9 |
| 20260505084531 | 25 | 227 | 12.9 | 22.5 | 0.00 | 0.00 | 0.00 | 59 | 1013.8 |
| 20260505083105 | 22 | 150 | 8.0 | 20.9 | 0.00 | 0.00 | 0.00 | 68 | 1023.1 |
| 20260505083032 | 25 | 289 | 9.7 | 22.5 | 0.00 | 0.00 | 0.00 | 61 | 1014.0 |
| 20260505081558 | 22 | 136 | 8.0 | 22.5 | 0.00 | 0.00 | 0.00 | 70 | 1023.2 |
| 20260505081542 | 25 | 204 | 11.3 | 20.9 | 0.00 | 0.00 | 0.00 | 63 | 1014.3 |
| 20260505080057 | 21 | 176 | 9.7 | 22.5 | 0.00 | 0.00 | 0.00 | 71 | 1023.4 |
| 20260505080038 | 24 | 208 | 9.7 | 20.9 | 0.00 | 0.00 | 0.00 | 63 | 1014.3 |
| 20260505074553 | 21 | 139 | 14.5 | 20.9 | 0.00 | 0.00 | 0.00 | 71 | 1023.3 |
| 20260505074532 | 24 | 253 | 8.0 | 20.9 | 0.00 | 0.00 | 0.00 | 64 | 1014.4 |
| 20260505073056 | 21 | 125 | 11.3 | 22.5 | 0.00 | 0.00 | 0.00 | 74 | 1023.3 |
| 20260505073044 | 23 | 223 | 9.7 | 24.1 | 0.00 | 0.00 | 0.00 | 67 | 1014.5 |
| 20260505071553 | 20 | 130 | 9.7 | 25.7 | 0.00 | 0.00 | 0.00 | 77 | 1023.4 |
| 20260505071546 | 23 | 235 | 9.7 | 22.5 | 0.00 | 0.00 | 0.00 | 68 | 1014.5 |
| 20260505070055 | 19 | 171 | 12.9 | 22.5 | 0.00 | 0.00 | 0.00 | 80 | 1023.3 |
| 20260505070033 | 22 | 241 | 11.3 | 24.1 | 0.00 | 0.00 | 0.00 | 71 | 1014.3 |
| 20260505064559 | 18 | 118 | 16.1 | 25.7 | 0.00 | 0.00 | 0.00 | 81 | 1023.2 |
| 20260505064532 | 22 | 194 | 9.7 | 22.5 | 0.00 | 0.00 | 0.00 | 73 | 1014.4 |
| 20260505063055 | 18 | 179 | 12.9 | 30.6 | 0.00 | 0.00 | 0.00 | 83 | 1022.9 |
| 20260505063035 | 21 | 0 | 1.6 | 9.7 | 0.00 | 0.00 | 0.00 | 80 | 1014.6 |
| 20260505061554 | 17 | 185 | 17.7 | 30.6 | 0.00 | 0.00 | 0.00 | 85 | 1022.7 |
| 20260505061534 | 19 | 105 | 0.0 | 6.4 | 0.00 | 0.00 | 0.00 | 84 | 1014.6 |
| 20260505060058 | 17 | 153 | 16.1 | 29.0 | 0.00 | 0.00 | 0.00 | 86 | 1022.5 |
| 20260505060031 | 18 | 124 | 0.0 | 4.8 | 0.00 | 0.00 | 0.00 | 85 | 1014.3 |
| 20260505054601 | 16 | 152 | 14.5 | 25.7 | 0.00 | 0.00 | 0.00 | 87 | 1022.6 |
| 20260505054548 | 18 | 0 | 0.0 | 3.2 | 0.00 | 0.00 | 0.00 | 85 | 1014.2 |
| 20260505053109 | 16 | 148 | 9.7 | 19.3 | 0.00 | 0.00 | 0.00 | 89 | 1022.6 |
| 20260505053051 | 18 | 0 | 0.0 | 3.2 | 0.00 | 0.00 | 0.00 | 84 | 1014.2 |
| 20260505051552 | 15 | 133 | 8.0 | 14.5 | 0.00 | 0.00 | 0.00 | 89 | 1022.4 |
| 20260505051541 | 17 | 0 | 0.0 | 4.8 | 0.00 | 0.00 | 0.00 | 87 | 1014.0 |
| 20260505041611 | 13 | 135 | 3.2 | 12.9 | 0.00 | 0.00 | 0.00 | 91 | 1022.1 |
| 20260505041536 | 17 | 215 | 0.0 | 9.7 | 0.00 | 0.00 | 0.00 | 89 | 1013.5 |
| 20260505040056 | 13 | 141 | 6.4 | 14.5 | 0.00 | 0.00 | 0.00 | 91 | 1021.7 |
| 20260505040041 | 16 | 209 | 1.6 | 11.3 | 0.00 | 0.00 | 0.00 | 89 | 1013.5 |
| 20260505034558 | 13 | 169 | 8.0 | 16.1 | 0.00 | 0.00 | 0.00 | 91 | 1021.7 |
| 20260505034535 | 15 | 183 | 0.0 | 4.8 | 0.00 | 0.00 | 0.00 | 91 | 1013.5 |
| 20260505033056 | 13 | 162 | 8.0 | 16.1 | 0.00 | 0.00 | 0.00 | 91 | 1021.6 |
| 20260505033036 | 15 | 0 | 0.0 | 8.0 | 0.00 | 0.00 | 0.00 | 88 | 1013.4 |
| 20260505031602 | 13 | 184 | 9.7 | 19.3 | 0.00 | 0.00 | 0.00 | 91 | 1021.3 |
| 20260505031533 | 16 | 199 | 4.8 | 9.7 | 0.00 | 0.00 | 0.00 | 90 | 1013.4 |
| 20260505030051 | 13 | 169 | 8.0 | 14.5 | 0.00 | 0.00 | 0.00 | 91 | 1021.3 |
| 20260505030035 | 15 | 153 | 0.0 | 4.8 | 0.00 | 0.00 | 0.00 | 89 | 1013.4 |
| 20260505024555 | 13 | 185 | 9.7 | 16.1 | 0.00 | 0.00 | 0.00 | 91 | 1021.0 |
| 20260505024534 | 15 | 175 | 1.6 | 8.0 | 0.00 | 0.00 | 0.00 | 89 | 1013.2 |
| 20260505023103 | 13 | 153 | 9.7 | 12.9 | 0.00 | 0.00 | 0.00 | 91 | 1021.2 |
| 20260505023034 | 15 | 200 | 1.6 | 6.4 | 0.00 | 0.00 | 0.00 | 89 | 1013.3 |
| 20260505021605 | 13 | 155 | 6.4 | 11.3 | 0.00 | 0.00 | 0.00 | 90 | 1021.4 |
| 20260505021530 | 15 | 0 | 3.2 | 11.3 | 0.00 | 0.00 | 0.00 | 88 | 1013.2 |
| 20260505020053 | 13 | 157 | 4.8 | 8.0 | 0.00 | 0.00 | 0.00 | 90 | 1021.5 |
| 20260505020032 | 15 | 176 | 4.8 | 11.3 | 0.00 | 0.00 | 0.00 | 87 | 1013.4 |
| 20260505014553 | 13 | 161 | 3.2 | 6.4 | 0.00 | 0.00 | 0.00 | 90 | 1021.6 |
| 20260505014536 | 15 | 194 | 3.2 | 12.9 | 0.00 | 0.00 | 0.00 | 87 | 1013.2 |
| 20260505013059 | 13 | 169 | 3.2 | 6.4 | 0.00 | 0.00 | 0.00 | 90 | 1021.5 |
| 20260505013032 | 15 | 177 | 3.2 | 9.7 | 0.00 | 0.00 | 0.00 | 87 | 1013.4 |
| 20260505011557 | 13 | 165 | 1.6 | 6.4 | 0.00 | 0.00 | 0.00 | 90 | 1021.6 |
| 20260505011541 | 15 | 0 | 0.0 | 4.8 | 0.00 | 0.00 | 0.00 | 86 | 1013.4 |
| 20260505010056 | 13 | 166 | 1.6 | 4.8 | 0.00 | 0.00 | 0.00 | 90 | 1021.6 |
| 20260505010032 | 15 | 173 | 1.6 | 6.4 | 0.00 | 0.00 | 0.00 | 85 | 1013.5 |
| 20260505004552 | 13 | 166 | 1.6 | 4.8 | 0.00 | 0.00 | 0.00 | 89 | 1021.8 |
| 20260505004536 | 15 | 137 | 0.0 | 4.8 | 0.00 | 0.00 | 0.00 | 84 | 1013.6 |
| 20260505003057 | 13 | 166 | 3.2 | 6.4 | 0.00 | 0.00 | 0.00 | 90 | 1021.7 |
| 20260505003031 | 15 | 179 | 0.0 | 1.6 | 0.00 | 0.00 | 0.00 | 86 | 1013.5 |
| 20260505001556 | 13 | 166 | 1.6 | 6.4 | 0.00 | 0.00 | 0.00 | 89 | 1021.7 |
| 20260505001535 | 15 | 0 | 0.0 | 0.0 | 0.00 | 0.00 | 0.00 | 86 | 1013.8 |
| 20260505000058 | 13 | 154 | 3.2 | 8.0 | 0.00 | 0.00 | 0.00 | 90 | 1022.0 |
| 20260505000033 | 15 | 0 | 0.0 | 0.0 | 0.00 | 0.00 | 0.00 | 85 | 1013.9 |
| 20260504234619 | 13 | 183 | 0.0 | 3.2 | 0.00 | 0.00 | 0.00 | 89 | 1022.1 |
| 20260504234533 | 16 | 0 | 0.0 | 0.0 | 0.00 | 0.00 | 0.00 | 83 | 1013.8 |
| 20260504233054 | 13 | 0 | 1.6 | 4.8 | 0.00 | 0.00 | 0.00 | 89 | 1022.1 |
| 20260504233032 | 16 | 0 | 0.0 | 1.6 | 0.00 | 0.00 | 0.00 | 81 | 1013.9 |
| 20260504231602 | 13 | 183 | 3.2 | 6.4 | 0.00 | 0.00 | 0.00 | 89 | 1022.1 |
| 20260504231530 | 17 | 0 | 0.0 | 1.6 | 0.00 | 0.00 | 0.00 | 81 | 1013.8 |
| 20260504230058 | 13 | 121 | 3.2 | 4.8 | 0.00 | 0.00 | 0.00 | 88 | 1022.1 |
| 20260504230031 | 17 | 0 | 0.0 | 1.6 | 0.00 | 0.00 | 0.00 | 80 | 1014.0 |
| 20260504224600 | 13 | 172 | 1.6 | 6.4 | 0.00 | 0.00 | 0.00 | 88 | 1022.4 |
| 20260504224532 | 17 | 0 | 0.0 | 1.6 | 0.00 | 0.00 | 0.00 | 79 | 1014.2 |
| 20260504223101 | 14 | 177 | 3.2 | 6.4 | 0.00 | 0.00 | 0.00 | 87 | 1022.6 |
| 20260504223033 | 17 | 0 | 0.0 | 1.6 | 0.00 | 0.00 | 0.00 | 80 | 1014.4 |
| 20260504221609 | 14 | 171 | 0.0 | 3.2 | 0.00 | 0.00 | 0.00 | 87 | 1022.9 |
| 20260504221536 | 16 | 251 | 0.0 | 3.2 | 0.00 | 0.00 | 0.00 | 84 | 1014.5 |
| 20260504220058 | 14 | 171 | 1.6 | 6.4 | 0.00 | 0.00 | 0.00 | 86 | 1022.8 |
| 20260504220033 | 15 | 236 | 0.0 | 3.2 | 0.00 | 0.00 | 0.00 | 84 | 1014.5 |
| 20260504214559 | 15 | 171 | 3.2 | 6.4 | 0.00 | 0.00 | 0.00 | 86 | 1023.0 |
| 20260504214539 | 16 | 250 | 0.0 | 1.6 | 0.00 | 0.00 | 0.00 | 82 | 1014.6 |
| 20260504213103 | 15 | 173 | 1.6 | 4.8 | 0.00 | 0.00 | 0.00 | 85 | 1023.0 |
| 20260504213040 | 16 | 246 | 0.0 | 4.8 | 0.00 | 0.00 | 0.00 | 83 | 1014.7 |
| 20260504211558 | 15 | 175 | 1.6 | 8.0 | 0.00 | 0.00 | 0.00 | 84 | 1023.1 |
| 20260504211534 | 16 | 248 | 0.0 | 3.2 | 0.00 | 0.00 | 0.00 | 79 | 1014.7 |
| 20260504210109 | 15 | 165 | 4.8 | 8.0 | 0.00 | 0.00 | 0.00 | 84 | 1023.2 |
| 20260504210033 | 17 | 0 | 0.0 | 1.6 | 0.00 | 0.00 | 0.00 | 79 | 1014.9 |
| 20260504204602 | 15 | 180 | 1.6 | 4.8 | 0.00 | 0.00 | 0.00 | 84 | 1023.3 |
| 20260504204529 | 16 | 0 | 0.0 | 3.2 | 0.00 | 0.00 | 0.00 | 81 | 1015.0 |
| 20260504203058 | 15 | 179 | 1.6 | 4.8 | 0.00 | 0.00 | 0.00 | 84 | 1023.2 |
| 20260504203035 | 17 | 0 | 0.0 | 0.0 | 0.00 | 0.00 | 0.00 | 77 | 1015.1 |
| 20260504201602 | 18 | 0 | 0.0 | 1.6 | 0.00 | 0.00 | 0.00 | 74 | 1015.4 |
| 20260504201554 | 16 | 188 | 3.2 | 6.4 | 0.00 | 0.00 | 0.00 | 83 | 1023.2 |
| 20260504200100 | 16 | 178 | 1.6 | 3.2 | 0.00 | 0.00 | 0.00 | 82 | 1023.4 |
| 20260504200041 | 18 | 0 | 0.0 | 3.2 | 0.00 | 0.00 | 0.00 | 72 | 1015.3 |
| 20260504194608 | 16 | 178 | 1.6 | 4.8 | 0.00 | 0.00 | 0.00 | 82 | 1023.4 |
| 20260504194536 | 18 | 0 | 0.0 | 3.2 | 0.00 | 0.00 | 0.00 | 71 | 1015.3 |
| 20260504193053 | 16 | 180 | 3.2 | 6.4 | 0.00 | 0.00 | 0.00 | 81 | 1023.4 |
| 20260504193035 | 19 | 0 | 0.0 | 1.6 | 0.00 | 0.00 | 0.00 | 70 | 1015.4 |
| 20260504191554 | 16 | 155 | 3.2 | 9.7 | 0.00 | 0.00 | 0.00 | 80 | 1023.4 |
| 20260504191550 | 20 | 0 | 0.0 | 1.6 | 0.00 | 0.00 | 0.00 | 67 | 1015.3 |
| 20260504190117 | 17 | 151 | 1.6 | 6.4 | 0.00 | 0.00 | 0.00 | 80 | 1023.4 |
| 20260504190038 | 20 | 0 | 0.0 | 1.6 | 0.00 | 0.00 | 0.00 | 66 | 1015.4 |
| 20260504184558 | 17 | 173 | 3.2 | 8.0 | 0.00 | 0.00 | 0.00 | 79 | 1023.4 |
| 20260504184548 | 20 | 0 | 0.0 | 1.6 | 0.00 | 0.00 | 0.00 | 65 | 1015.3 |
| 20260504183056 | 17 | 161 | 3.2 | 6.4 | 0.00 | 0.00 | 0.00 | 79 | 1023.5 |
| 20260504183041 | 20 | 0 | 0.0 | 3.2 | 0.00 | 0.00 | 0.00 | 65 | 1015.3 |
| 20260504181558 | 17 | 182 | 3.2 | 6.4 | 0.00 | 0.00 | 0.00 | 78 | 1023.4 |
| 20260504181535 | 21 | 292 | 0.0 | 3.2 | 0.00 | 0.00 | 0.00 | 61 | 1015.1 |
| 20260504180144 | 18 | 158 | 1.6 | 8.0 | 0.00 | 0.00 | 0.00 | 77 | 1023.2 |
| 20260504180036 | 20 | 0 | 0.0 | 4.8 | 0.00 | 0.00 | 0.00 | 63 | 1015.1 |
| 20260504174556 | 18 | 158 | 3.2 | 8.0 | 0.00 | 0.00 | 0.00 | 76 | 1023.3 |
| 20260504174535 | 20 | 274 | 0.0 | 4.8 | 0.00 | 0.00 | 0.00 | 66 | 1015.0 |
| 20260504173113 | 18 | 150 | 3.2 | 9.7 | 0.00 | 0.00 | 0.00 | 75 | 1023.1 |
| 20260504173032 | 20 | 234 | 0.0 | 3.2 | 0.00 | 0.00 | 0.00 | 70 | 1014.6 |
| 20260504171558 | 18 | 153 | 3.2 | 8.0 | 0.00 | 0.00 | 0.00 | 75 | 1023.0 |
| 20260504171532 | 21 | 0 | 0.0 | 3.2 | 0.00 | 0.00 | 0.00 | 64 | 1014.5 |